Location: Meinert
(37.9441°N, 122.0275°W)
Time: 19:49:49
(UTC+00:00)

ALOS - Pass Details

Date: 18 April 2024
Orbit: 674 x 675 km, 98.0° (Epoch: 23 May)

Event Time Altitude Azimuth Distance (km) Brightness Sun altitude
Rises 12:16:33 0° 350° (N) 3,037 5.8 -14.0°
Reaches altitude 10° 12:20:00 10° 323° (NW) 2,117 4.7 -13.4°
Maximum altitude 12:22:01 13° 297° (WNW) 1,927 4.2 -13.0°
Enters shadow 12:23:03 12° 282° (WNW) 1,977 4.2 -12.8°
